When you browse on this site, cookies collect data to enhance your experience and personalize the content and advertising you see.
Visit our Privacy Policy to learn more. By continuing to use the site, you agree to this use of cookies and data.
  • In Spain
  • List of Countries
  • For 7 days
  • Water Temperature
  • Weather Map
  • Weather Widgets
  • user-avatar
    Login

    Hourly Weather Viana do Castelo

    Today, 31 May, Sunday

    Time Temperature Precipitation Wind Pressure Humidity
    00:00 +19°C° 0 mm 1 mps 753 mmHg 84%
    01:00 +19°C° 0 mm 1 mps 753 mmHg 85%
    02:00 +19°C° 0 mm 1 mps 753 mmHg 85%
    03:00 +19°C° 0 mm 1 mps 753 mmHg 85%
    04:00 +19°C° 0 mm 1 mps 753 mmHg 84%
    05:00 +20°C° 0 mm 1 mps 753 mmHg 84%
    06:00 +21°C° 0.1 mm 1 mps 753 mmHg 79%
    07:00 +23°C° 0.1 mm 1 mps 753 mmHg 73%
    08:00 +25°C° 0.1 mm 1 mps 754 mmHg 67%
    09:00 +26°C° 0 mm 2 mps 754 mmHg 64%
    10:00 +26°C° 0 mm 2 mps 753 mmHg 62%
    11:00 +27°C° 0 mm 3 mps 753 mmHg 59%
    12:00 +27°C° 0 mm 3 mps 753 mmHg 59%
    13:00 +27°C° 0 mm 3 mps 753 mmHg 58%
    14:00 +27°C° 0 mm 4 mps 753 mmHg 58%
    15:00 +26°C° 0.1 mm 4 mps 753 mmHg 63%
    16:00 +25°C° 0.1 mm 4 mps 753 mmHg 67%
    17:00 +23°C° 0.1 mm 4 mps 753 mmHg 72%
    18:00 +21°C° 0.1 mm 4 mps 753 mmHg 79%
    19:00 +19°C° 0.1 mm 3 mps 754 mmHg 86%
    20:00 +17°C° 0.1 mm 3 mps 755 mmHg 94%
    21:00 +17°C° 0.3 mm 2 mps 754 mmHg 94%
    22:00 +17°C° 0.3 mm 2 mps 754 mmHg 95%
    23:00 +17°C° 0.3 mm 2 mps 754 mmHg 95%

    Tomorrow, 1 June, Monday

    Time Temperature Precipitation Wind Pressure Humidity
    00:00 +16°C° 0.3 mm 2 mps 754 mmHg 95%
    01:00 +16°C° 0.3 mm 2 mps 754 mmHg 95%
    02:00 +16°C° 0.3 mm 2 mps 754 mmHg 95%
    03:00 +16°C° 0.1 mm 2 mps 754 mmHg 95%
    04:00 +17°C° 0.1 mm 2 mps 754 mmHg 94%
    05:00 +17°C° 0.1 mm 2 mps 754 mmHg 94%
    06:00 +19°C° 0 mm 2 mps 755 mmHg 87%
    07:00 +21°C° 0 mm 2 mps 755 mmHg 80%
    08:00 +24°C° 0 mm 1 mps 755 mmHg 73%
    09:00 +25°C° 0.1 mm 2 mps 755 mmHg 70%
    10:00 +25°C° 0.1 mm 3 mps 755 mmHg 67%
    11:00 +26°C° 0.1 mm 3 mps 755 mmHg 64%
    12:00 +26°C° 0.5 mm 3 mps 755 mmHg 64%
    13:00 +26°C° 0.5 mm 3 mps 755 mmHg 65%
    14:00 +26°C° 0.5 mm 3 mps 755 mmHg 66%
    15:00 +25°C° 0.1 mm 3 mps 755 mmHg 67%
    16:00 +25°C° 0.1 mm 3 mps 755 mmHg 69%
    17:00 +24°C° 0.1 mm 3 mps 754 mmHg 71%
    18:00 +22°C° 0.1 mm 3 mps 755 mmHg 76%
    19:00 +20°C° 0.1 mm 2 mps 755 mmHg 81%
    20:00 +19°C° 0.1 mm 2 mps 756 mmHg 86%
    21:00 +19°C° 0 mm 2 mps 755 mmHg 87%
    22:00 +19°C° 0 mm 1 mps 755 mmHg 87%
    23:00 +19°C° 0 mm 1 mps 755 mmHg 88%

    Day after tomorrow, 2 June, Tuesday

    Time Temperature Precipitation Wind Pressure Humidity
    00:00 +19°C° 0 mm 1 mps 755 mmHg 88%
    01:00 +19°C° 0 mm 1 mps 755 mmHg 89%
    02:00 +19°C° 0 mm 1 mps 755 mmHg 89%
    03:00 +19°C° 0 mm 1 mps 755 mmHg 88%
    04:00 +20°C° 0 mm 1 mps 755 mmHg 87%
    05:00 +20°C° 0 mm 1 mps 755 mmHg 86%
    06:00 +22°C° 0 mm 1 mps 755 mmHg 79%
    07:00 +24°C° 0 mm 1 mps 755 mmHg 71%
    08:00 +26°C° 0 mm 1 mps 755 mmHg 64%
    09:00 +26°C° 0.1 mm 1 mps 755 mmHg 62%
    10:00 +27°C° 0.1 mm 2 mps 755 mmHg 60%
    11:00 +27°C° 0.1 mm 2 mps 755 mmHg 58%
    12:00 +27°C° 0.1 mm 3 mps 755 mmHg 60%
    13:00 +26°C° 0.1 mm 3 mps 754 mmHg 62%
    14:00 +26°C° 0.1 mm 3 mps 754 mmHg 64%
    15:00 +25°C° 0.1 mm 3 mps 754 mmHg 67%
    16:00 +24°C° 0.1 mm 2 mps 754 mmHg 70%
    17:00 +24°C° 0.1 mm 1 mps 754 mmHg 73%
    18:00 +22°C° 0 mm 1 mps 754 mmHg 79%
    19:00 +21°C° 0 mm 1 mps 754 mmHg 85%
    20:00 +19°C° 0 mm 1 mps 754 mmHg 92%
    21:00 +18°C° 0 mm 2 mps 754 mmHg 93%
    22:00 +18°C° 0 mm 2 mps 754 mmHg 95%
    23:00 +17°C° 0 mm 2 mps 754 mmHg 96%

    3 June, Wednesday

    Time Temperature Precipitation Wind Pressure Humidity
    00:00 +17°C° 0 mm 2 mps 753 mmHg 96%
    01:00 +17°C° 0 mm 2 mps 753 mmHg 97%
    02:00 +17°C° 0 mm 2 mps 753 mmHg 97%
    03:00 +18°C° 0 mm 2 mps 753 mmHg 96%
    04:00 +18°C° 0 mm 2 mps 752 mmHg 94%
    05:00 +18°C° 0 mm 2 mps 752 mmHg 93%
    06:00 +18°C° 0.1 mm 2 mps 752 mmHg 92%
    07:00 +19°C° 0.1 mm 3 mps 752 mmHg 92%
    08:00 +19°C° 0.1 mm 3 mps 752 mmHg 91%
    09:00 +19°C° 0.2 mm 3 mps 752 mmHg 89%
    10:00 +20°C° 0.2 mm 4 mps 752 mmHg 86%
    11:00 +20°C° 0.2 mm 4 mps 752 mmHg 84%
    12:00 +20°C° 0.4 mm 4 mps 751 mmHg 84%
    13:00 +20°C° 0.4 mm 5 mps 751 mmHg 84%
    14:00 +20°C° 0.4 mm 5 mps 751 mmHg 85%
    15:00 +19°C° 1.3 mm 5 mps 750 mmHg 89%
    16:00 +18°C° 1.3 mm 4 mps 750 mmHg 93%
    17:00 +18°C° 1.3 mm 4 mps 750 mmHg 97%
    18:00 +17°C° 1 mm 3 mps 749 mmHg 96%
    19:00 +17°C° 1 mm 3 mps 749 mmHg 96%
    20:00 +17°C° 1 mm 3 mps 749 mmHg 96%
    21:00 +17°C° 1.2 mm 3 mps 749 mmHg 95%
    22:00 +17°C° 1.2 mm 3 mps 748 mmHg 95%
    23:00 +17°C° 1.2 mm 4 mps 748 mmHg 95%

    4 June, Thursday

    Time Temperature Precipitation Wind Pressure Humidity
    00:00 +17°C° 0.7 mm 4 mps 747 mmHg 95%
    01:00 +16°C° 0.7 mm 5 mps 747 mmHg 95%
    02:00 +16°C° 0.7 mm 5 mps 746 mmHg 95%
    03:00 +16°C° 0.5 mm 5 mps 746 mmHg 95%
    04:00 +16°C° 0.5 mm 5 mps 746 mmHg 94%
    05:00 +16°C° 0.5 mm 6 mps 746 mmHg 94%
    06:00 +17°C° 0.1 mm 5 mps 746 mmHg 90%
    07:00 +17°C° 0.1 mm 5 mps 746 mmHg 86%
    08:00 +19°C° 0.1 mm 5 mps 746 mmHg 82%
    09:00 +19°C° 0.5 mm 5 mps 746 mmHg 83%
    10:00 +18°C° 0.5 mm 4 mps 746 mmHg 84%
    11:00 +18°C° 0.5 mm 3 mps 746 mmHg 85%
    12:00 +19°C° 0.3 mm 3 mps 746 mmHg 84%
    13:00 +19°C° 0.3 mm 3 mps 746 mmHg 83%
    14:00 +20°C° 0.3 mm 3 mps 745 mmHg 82%
    15:00 +19°C° 0.7 mm 3 mps 745 mmHg 85%
    16:00 +19°C° 0.7 mm 3 mps 745 mmHg 87%
    17:00 +18°C° 0.7 mm 3 mps 745 mmHg 90%
    18:00 +17°C° 1 mm 3 mps 746 mmHg 92%
    19:00 +17°C° 1 mm 4 mps 746 mmHg 93%
    20:00 +15°C° 1 mm 4 mps 746 mmHg 94%
    21:00 +15°C° 1.6 mm 4 mps 746 mmHg 94%
    22:00 +15°C° 1.6 mm 4 mps 746 mmHg 93%
    23:00 +14°C° 1.6 mm 3 mps 746 mmHg 93%

    5 June, Friday

    Time Temperature Precipitation Wind Pressure Humidity
    00:00 +14°C° 1.2 mm 4 mps 746 mmHg 93%
    01:00 +14°C° 1.2 mm 5 mps 746 mmHg 92%
    02:00 +14°C° 1.2 mm 6 mps 745 mmHg 92%
    03:00 +14°C° 0.6 mm 6 mps 746 mmHg 92%
    04:00 +14°C° 0.6 mm 7 mps 746 mmHg 92%
    05:00 +14°C° 0.6 mm 7 mps 746 mmHg 91%
    06:00 +15°C° 0.7 mm 8 mps 746 mmHg 90%
    07:00 +15°C° 0.7 mm 8 mps 746 mmHg 89%
    08:00 +16°C° 0.7 mm 8 mps 747 mmHg 87%
    09:00 +16°C° 0.7 mm 9 mps 747 mmHg 85%
    10:00 +17°C° 0.7 mm 9 mps 747 mmHg 83%
    11:00 +17°C° 0.7 mm 10 mps 747 mmHg 81%
    12:00 +17°C° 0.5 mm 9 mps 747 mmHg 79%
    13:00 +17°C° 0.5 mm 9 mps 747 mmHg 77%
    14:00 +17°C° 0.5 mm 9 mps 747 mmHg 75%
    15:00 +17°C° 0.5 mm 9 mps 747 mmHg 75%
    16:00 +17°C° 0.5 mm 9 mps 747 mmHg 76%
    17:00 +16°C° 0.5 mm 9 mps 747 mmHg 76%
    18:00 +16°C° 3.4 mm 8 mps 747 mmHg 82%
    19:00 +15°C° 3.4 mm 7 mps 748 mmHg 89%
    20:00 +15°C° 3.4 mm 5 mps 748 mmHg 96%
    21:00 +15°C° 1.9 mm 6 mps 748 mmHg 95%
    22:00 +15°C° 1.9 mm 7 mps 748 mmHg 95%
    23:00 +15°C° 1.9 mm 8 mps 748 mmHg 95%
    Show more